RS-38S
1 57189U 23091Z   26112.87182052  .00011914  00000-0  36126-3 0  9997
2 57189  97.5119 181.3167 0005992 261.6382  98.4181 15.34265440156203
SONATE-2
1 59112U 24043Q   26112.66342398  .00025033  00000-0  37734-3 0  9994
2 59112  97.5476 259.8506 0006977  53.2195 306.9698 15.54753512119254
GRBBeta
1 60237U 24128C   26112.79404525  .00002768  00000-0  19819-3 0  9997
2 60237  61.9909  50.5441 0047409 122.9171 237.6495 15.06180867 97925
Curium One
1 60242U 24128H   26112.35598656  .00006305  00000-0  37267-3 0  9992
2 60242  61.9801  43.3810 0047161 119.2748 241.3073 15.11599895 98012
ROBUSTA-3A
1 60243U 24128J   26112.35644340  .00006654  00000-0  40102-3 0  9994
2 60243  61.9877  45.5477 0048114 116.8151 243.7876 15.10784157 97987
CatSat
1 60246U 24125J   26112.69105207  .00034482  00000-0  54718-3 0  9993
2 60246  97.2153 324.7035 0024455  32.0242 328.2492 15.52943204 98769
HYPERVIEW-1G (RS66S)
1 61772U 24199AP  26112.72361264  .00059691  00000-0  61716-3 0  9995
2 61772  97.2984 350.1342 0009528 116.0995 244.1246 15.64510033125972
AO-123
1 61781U 24199AY  26112.82882291  .00006043  00000-0  18062-3 0  9993
2 61781  97.3076 342.0085 0015189 142.0861 218.1455 15.34841709125438
JINJUSat 1B
1 63210U 25052A   26112.25716475  .00012927  00000-0  42397-3 0  9994
2 63210  97.4058   8.9952 0001299 307.7326  52.3797 15.31747009 61534
NUSHSAT 1
1 63211U 25052B   26112.18703182  .00016187  00000-0  49732-3 0  9990
2 63211  97.4036   9.3169 0001193 326.2667  33.8500 15.33786532 61557
TEVEL2-4
1 63213U 25052D   26112.26450600  .00013741  00000-0  43813-3 0  9992
2 63213  97.3959   8.6304 0001528   8.0149 352.1117 15.32639554 61547
TEVEL2-5
1 63214U 25052E   26111.43040099  .00018132  00000-0  58000-3 0  9991
2 63214  97.3955   7.7598 0001662  10.9806 349.1472 15.32474009 61418
TEVEL2-6
1 63215U 25052F   26111.96372740  .00015699  00000-0  50307-3 0  9998
2 63215  97.3960   8.2777 0001645   5.7823 354.3437 15.32448593 61498
TEVEL2-1
1 63217U 25052H   26112.17047370  .00013562  00000-0  44134-3 0  9990
2 63217  97.3932   8.1716 0002246  15.9853 344.1459 15.31986232 61515
TEVEL2-3
1 63218U 25052J   26112.23223368  .00013463  00000-0  43751-3 0  9995
2 63218  97.3933   8.2480 0002281  16.6569 343.4747 15.32032376 61522
TEVEL2-2
1 63219U 25052K   26112.17102839  .00013814  00000-0  44938-3 0  9996
2 63219  97.3933   8.1733 0002278  16.2088 343.9226 15.31991519 61519
TEVEL2-9
1 63237U 25052AD  26112.27518933  .00012459  00000-0  42896-3 0  9998
2 63237  97.3996   7.7668 0005917   0.8733 359.2517 15.30167324 61475
TEVEL2-7
1 63238U 25052AE  26112.17536852  .00012373  00000-0  42937-3 0  9999
2 63238  97.3996   7.6052 0006006   1.7678 358.3582 15.29912714 61459
TEVEL2-8
1 63239U 25052AF  26112.51001033  .00011164  00000-0  38786-3 0  9990
2 63239  97.3996   7.9171 0005997   1.3907 358.7349 15.29900839 61500
HYDRA-W
1 63490U 25052BL  26112.26439385  .02130398  41366-2  26477-2 0  9994
2 63490  97.3739  16.4004 0007524 180.8298 179.2974 16.08789288 62061
HADES-ICM (SO-125)
1 63492U 25052BN  26112.49616424  .00246799  00000-0  16458-2 0  9999
2 63492  97.3831  15.0589 0003153 105.7549 254.4064 15.74649392 61998
SPIRONE
1 66657U 25274H   26112.30859836  .00001445  00000-0  14319-3 0  9999
2 66657  97.7466  42.4145 0011579 193.0665 167.0257 14.93310264 21884
K-HERO
1 66660U 25274L   26112.73099280  .00001215  00000-0  11991-3 0  9997
2 66660  97.7473  42.9502 0013392 197.2800 162.7966 14.93743875 21955
SNUGLITE-III DURI
1 66661U 25274M   26111.38099138  .00001014  00000-0  10082-3 0  9997
2 66661  97.7471  41.6375 0013845 203.4025 156.6566 14.93807070 21754
SilverSat
1 66909U 98067XV  26112.46652165  .03433955  11935-4  14877-2 0  9991
2 66909  51.6065 195.5293 0011992 340.7155  19.3409 16.21665143 22146
SAKHACUBE-CHOLBON
1 67290U 25313AU  26112.16614504  .00008007  00000-0  33474-3 0  9996
2 67290  97.3947 187.9416 0009656 184.1395 175.9764 15.23828006 17448
RS95S (QMR-KWT-2)
1 67291U 25313AV  26112.72248097  .00009022  00000-0  36609-3 0  9990
2 67291  97.3943 188.5688 0009607 180.7107 179.4119 15.24794132 17538
Ten-Koh2
1 68261U 25241B   26111.34167249  .00006976  00000-0  30490-3 0  9991
2 68261  51.6448 230.0617 0005332 318.7128  41.3446 15.23155057  6243
JACK-002
1 68417U 26067B   26111.83946020  .00006284  00000-0  30642-3 0  9998
2 68417  97.4532  71.1746 0004033 102.6731 257.4954 15.18663084  3397
DISCO 2
1 68431U 26067R   26111.84624708  .00005041  00000-0  24964-3 0  9991
2 68431  97.4568  71.1768 0002817 143.2618 216.8810 15.18218595  3392
HADES-SA (SpinnyONE)
1 68446U 26067AG  26112.12866642  .00014685  00000-0  74220-3 0  9998
2 68446  97.4380  71.3612 0004507 270.5879  89.4838 15.17154363  3420
PARUS-6U1
1 68456U 26067AS  26111.93096298  .00004903  00000-0  25212-3 0  9998
2 68456  97.4517  71.2026 0003728 254.6818 105.4003 15.16909995  3400
SAL-E
1 68458U 26067AU  26111.93123254  .00006459  00000-0  33080-3 0  9993
2 68458  97.4445  71.1826 0003816 269.5226  90.5570 15.16930921  3401
IO-86
1 40931U          25360.30710720  .00000000  00000-0  12800-3 0    00
2 40931   6.0006 332.5373 0012733 338.8432   8.1437 14.79075515    01
LILIUM-4                
1 71922C 26067AC  26089.50133053 -.00014632  00000+0 -74472-3 0    04
2 71922  97.4497  49.1617 0004341   5.9603 355.7042 15.16896692    16
